| time (UTC) | temp F | wind direction | speed knots | gust knots | rain 1hr in | rain 24hr in | rain mn in | humidity % | barometer mb |
| 20260504002617 | 82 | 102 | 0.0 | 0.9 | 0.00 | 0.00 | 0.00 | 38 | 1008.0 |
| 20260504002117 | 82 | 68 | 0.9 | 1.7 | 0.00 | 0.00 | 0.00 | 38 | 1008.0 |
| 20260504001617 | 82 | 53 | 1.7 | 3.5 | 0.00 | 0.00 | 0.00 | 38 | 1008.1 |
| 20260504001117 | 82 | 87 | 0.9 | 1.7 | 0.00 | 0.00 | 0.00 | 39 | 1008.2 |
| 20260504000637 | 82 | 43 | 2.6 | 2.6 | 0.00 | 0.00 | 0.00 | 39 | 1008.2 |
| 20260504000117 | 82 | 135 | 0.9 | 3.5 | 0.00 | 0.00 | 0.00 | 38 | 1008.3 |
| 20260503235618 | 82 | 105 | 0.0 | 1.7 | 0.00 | 0.00 | 0.00 | 39 | 1008.4 |
| 20260503235117 | 82 | 106 | 0.9 | 1.7 | 0.00 | 0.00 | 0.00 | 38 | 1008.4 |
| 20260503234617 | 82 | 42 | 1.7 | 2.6 | 0.00 | 0.00 | 0.00 | 38 | 1008.3 |
| 20260503234117 | 82 | 96 | 0.9 | 2.6 | 0.00 | 0.00 | 0.00 | 37 | 1008.4 |
| 20260503233617 | 83 | 233 | 1.7 | 5.2 | 0.00 | 0.00 | 0.00 | 36 | 1008.6 |
| 20260503233117 | 82 | 43 | 0.9 | 3.5 | 0.00 | 0.00 | 0.00 | 38 | 1008.5 |
| 20260503232617 | 83 | 28 | 0.9 | 1.7 | 0.00 | 0.00 | 0.00 | 37 | 1008.6 |
| 20260503232117 | 82 | 0.0 | 0.0 | 0.00 | 0.00 | 0.00 | 37 | 1008.8 | |
| 20260503231617 | 82 | 93 | 0.9 | 2.6 | 0.00 | 0.00 | 0.00 | 37 | 1008.8 |
| 20260503231117 | 82 | 81 | 0.9 | 2.6 | 0.00 | 0.00 | 0.00 | 36 | 1008.8 |
| 20260503230618 | 83 | 52 | 1.7 | 3.5 | 0.00 | 0.00 | 0.00 | 36 | 1008.9 |
| 20260503230118 | 81 | 100 | 2.6 | 2.6 | 0.00 | 0.00 | 0.00 | 37 | 1008.9 |
| 20260503225637 | 81 | 296 | 2.6 | 5.2 | 0.00 | 0.00 | 0.00 | 37 | 1009.0 |
| 20260503225117 | 82 | 21 | 1.7 | 3.5 | 0.00 | 0.00 | 0.00 | 38 | 1009.2 |
| 20260503224637 | 82 | 332 | 0.9 | 6.1 | 0.00 | 0.00 | 0.00 | 38 | 1009.1 |
| 20260503224117 | 82 | 315 | 0.0 | 1.7 | 0.00 | 0.00 | 0.00 | 38 | 1009.2 |
| 20260503223617 | 82 | 77 | 0.9 | 3.5 | 0.00 | 0.00 | 0.00 | 39 | 1009.2 |
| 20260503223117 | 81 | 82 | 0.9 | 1.7 | 0.00 | 0.00 | 0.00 | 39 | 1009.4 |
| 20260503222617 | 82 | 107 | 0.9 | 1.7 | 0.00 | 0.00 | 0.00 | 38 | 1009.4 |
| 20260503222118 | 81 | 157 | 2.6 | 7.0 | 0.00 | 0.00 | 0.00 | 39 | 1009.3 |
| 20260503221617 | 82 | 37 | 0.9 | 3.5 | 0.00 | 0.00 | 0.00 | 39 | 1009.5 |
| 20260503221117 | 81 | 108 | 0.0 | 0.9 | 0.00 | 0.00 | 0.00 | 39 | 1009.7 |
| 20260503220617 | 81 | 68 | 1.7 | 2.6 | 0.00 | 0.00 | 0.00 | 39 | 1009.8 |
| 20260503220117 | 81 | 23 | 0.9 | 2.6 | 0.00 | 0.00 | 0.00 | 38 | 1009.7 |
| 20260503215617 | 80 | 96 | 0.9 | 1.7 | 0.00 | 0.00 | 0.00 | 39 | 1009.7 |
| 20260503215137 | 80 | 88 | 0.9 | 2.6 | 0.00 | 0.00 | 0.00 | 39 | 1009.8 |
| 20260503214616 | 81 | 42 | 1.7 | 3.5 | 0.00 | 0.00 | 0.00 | 39 | 1009.8 |
| 20260503214117 | 80 | 95 | 0.0 | 1.7 | 0.00 | 0.00 | 0.00 | 40 | 1009.8 |
| 20260503213617 | 80 | 67 | 2.6 | 5.2 | 0.00 | 0.00 | 0.00 | 39 | 1009.8 |
| 20260503213117 | 80 | 96 | 1.7 | 2.6 | 0.00 | 0.00 | 0.00 | 39 | 1009.9 |
| 20260503212637 | 80 | 89 | 0.9 | 1.7 | 0.00 | 0.00 | 0.00 | 40 | 1010.1 |
| 20260503212117 | 79 | 126 | 0.9 | 2.6 | 0.00 | 0.00 | 0.00 | 40 | 1010.2 |
| 20260503211617 | 80 | 88 | 0.0 | 1.7 | 0.00 | 0.00 | 0.00 | 39 | 1010.2 |
| 20260503211117 | 79 | 115 | 0.9 | 2.6 | 0.00 | 0.00 | 0.00 | 39 | 1010.2 |
| 20260503210617 | 80 | 124 | 0.9 | 1.7 | 0.00 | 0.00 | 0.00 | 39 | 1010.1 |
| 20260503210117 | 79 | 93 | 0.9 | 2.6 | 0.00 | 0.00 | 0.00 | 40 | 1010.3 |
| 20260503205657 | 80 | 18 | 1.7 | 3.5 | 0.00 | 0.00 | 0.00 | 40 | 1010.3 |
| 20260503205137 | 79 | 124 | 0.9 | 1.7 | 0.00 | 0.00 | 0.00 | 42 | 1010.4 |
| 20260503204617 | 78 | 87 | 0.9 | 1.7 | 0.00 | 0.00 | 0.00 | 44 | 1010.4 |
| 20260503204117 | 78 | 95 | 0.9 | 1.7 | 0.00 | 0.00 | 0.00 | 44 | 1010.5 |
| 20260503203657 | 77 | 95 | 0.9 | 2.6 | 0.00 | 0.00 | 0.00 | 44 | 1010.6 |
| 20260503203117 | 77 | 81 | 1.7 | 3.5 | 0.00 | 0.00 | 0.00 | 44 | 1010.7 |
| 20260503202617 | 77 | 177 | 1.7 | 2.6 | 0.00 | 0.00 | 0.00 | 44 | 1010.6 |
| 20260503202117 | 78 | 322 | 1.7 | 6.1 | 0.00 | 0.00 | 0.00 | 44 | 1010.8 |
| 20260503201617 | 77 | 153 | 1.7 | 5.2 | 0.00 | 0.00 | 0.00 | 45 | 1010.8 |
| 20260503201118 | 77 | 96 | 0.0 | 1.7 | 0.00 | 0.00 | 0.00 | 45 | 1010.9 |
| 20260503200657 | 76 | 345 | 0.9 | 5.2 | 0.00 | 0.00 | 0.00 | 46 | 1010.9 |
| 20260503200117 | 76 | 12 | 0.9 | 2.6 | 0.00 | 0.00 | 0.00 | 47 | 1011.0 |
| 20260503195617 | 75 | 119 | 1.7 | 3.5 | 0.00 | 0.00 | 0.00 | 48 | 1011.1 |
| 20260503195117 | 76 | 317 | 3.5 | 6.1 | 0.00 | 0.00 | 0.00 | 47 | 1011.2 |
| 20260503194657 | 76 | 328 | 2.6 | 6.1 | 0.00 | 0.00 | 0.00 | 46 | 1011.1 |
| 20260503194117 | 75 | 45 | 0.9 | 5.2 | 0.00 | 0.00 | 0.00 | 49 | 1011.3 |
| 20260503193617 | 75 | 72 | 2.6 | 6.1 | 0.00 | 0.00 | 0.00 | 50 | 1011.4 |
| 20260503193117 | 75 | 145 | 0.9 | 1.7 | 0.00 | 0.00 | 0.00 | 51 | 1011.4 |
| 20260503192618 | 74 | 110 | 0.9 | 1.7 | 0.00 | 0.00 | 0.00 | 52 | 1011.5 |
| 20260503192117 | 74 | 297 | 1.7 | 5.2 | 0.00 | 0.00 | 0.00 | 52 | 1011.7 |
| 20260503191618 | 74 | 48 | 1.7 | 3.5 | 0.00 | 0.00 | 0.00 | 53 | 1011.8 |
| 20260503191117 | 74 | 296 | 1.7 | 6.1 | 0.00 | 0.00 | 0.00 | 51 | 1011.7 |
| 20260503190657 | 73 | 38 | 1.7 | 2.6 | 0.00 | 0.00 | 0.00 | 53 | 1011.7 |
| 20260503190117 | 74 | 71 | 0.9 | 2.6 | 0.00 | 0.00 | 0.00 | 51 | 1011.9 |
| 20260503185617 | 73 | 0.0 | 0.0 | 0.00 | 0.00 | 0.00 | 51 | 1012.0 | |
| 20260503185117 | 72 | 62 | 1.7 | 5.2 | 0.00 | 0.00 | 0.00 | 53 | 1011.9 |
| 20260503184617 | 73 | 80 | 2.6 | 3.5 | 0.00 | 0.00 | 0.00 | 51 | 1012.0 |
| 20260503184116 | 72 | 41 | 1.7 | 5.2 | 0.00 | 0.00 | 0.00 | 53 | 1012.3 |
| 20260503183617 | 72 | 73 | 0.9 | 1.7 | 0.00 | 0.00 | 0.00 | 53 | 1012.1 |
| 20260503183118 | 71 | 64 | 1.7 | 2.6 | 0.00 | 0.00 | 0.00 | 53 | 1012.3 |
| 20260503182617 | 71 | 56 | 1.7 | 2.6 | 0.00 | 0.00 | 0.00 | 54 | 1012.3 |
| 20260503182117 | 71 | 63 | 1.7 | 2.6 | 0.00 | 0.00 | 0.00 | 54 | 1012.4 |
| 20260503181618 | 72 | 57 | 1.7 | 3.5 | 0.00 | 0.00 | 0.00 | 54 | 1012.4 |
| 20260503181117 | 70 | 0.0 | 0.0 | 0.00 | 0.00 | 0.00 | 57 | 1012.4 | |
| 20260503180637 | 71 | 201 | 0.9 | 3.5 | 0.00 | 0.00 | 0.00 | 56 | 1012.4 |
| 20260503180117 | 71 | 78 | 1.7 | 2.6 | 0.00 | 0.00 | 0.00 | 57 | 1012.4 |
| 20260503175617 | 70 | 42 | 0.9 | 2.6 | 0.00 | 0.00 | 0.00 | 58 | 1012.4 |
| 20260503175117 | 70 | 143 | 0.9 | 1.7 | 0.00 | 0.00 | 0.00 | 57 | 1012.6 |
| 20260503174617 | 70 | 77 | 2.6 | 5.2 | 0.00 | 0.00 | 0.00 | 59 | 1012.5 |
| 20260503174137 | 70 | 0.0 | 0.0 | 0.00 | 0.00 | 0.00 | 60 | 1012.5 | |
| 20260503173617 | 69 | 293 | 0.9 | 2.6 | 0.00 | 0.00 | 0.00 | 61 | 1012.7 |
| 20260503173117 | 69 | 100 | 0.0 | 0.9 | 0.00 | 0.00 | 0.00 | 62 | 1012.6 |
| 20260503172617 | 68 | 300 | 1.7 | 3.5 | 0.00 | 0.00 | 0.00 | 63 | 1012.6 |
| 20260503172117 | 68 | 89 | 0.9 | 2.6 | 0.00 | 0.00 | 0.00 | 65 | 1012.8 |
| 20260503171617 | 67 | 82 | 1.7 | 2.6 | 0.00 | 0.00 | 0.00 | 66 | 1012.8 |
| 20260503171117 | 67 | 93 | 0.0 | 0.9 | 0.00 | 0.00 | 0.00 | 67 | 1012.8 |
| 20260503170618 | 66 | 76 | 0.9 | 2.6 | 0.00 | 0.00 | 0.00 | 68 | 1012.8 |
| 20260503170137 | 66 | 83 | 0.0 | 1.7 | 0.00 | 0.00 | 0.00 | 67 | 1012.9 |
| 20260503160117 | 61 | 307 | 1.7 | 3.5 | 0.00 | 0.00 | 0.00 | 78 | 1013.2 |
| 20260503150637 | 59 | 0.0 | 0.0 | 0.00 | 0.00 | 0.00 | 87 | 1013.3 | |
| 20260503150117 | 58 | 0.0 | 0.0 | 0.00 | 0.00 | 0.00 | 89 | 1013.3 | |
| 20260503140117 | 52 | 0.0 | 0.0 | 0.00 | 0.00 | 0.00 | 99 | 1013.3 | |
| 20260503131118 | 51 | 0.0 | 0.0 | 0.00 | 0.00 | 0.00 | 98 | 1013.4 | |
| 20260503130617 | 51 | 0.0 | 0.0 | 0.00 | 0.00 | 0.00 | 98 | 1013.4 | |
| 20260503130118 | 51 | 0.0 | 0.0 | 0.00 | 0.00 | 0.00 | 98 | 1013.1 | |
| 20260503120117 | 52 | 0.0 | 0.0 | 0.00 | 0.00 | 0.00 | 96 | 1013.3 | |
| 20260503110617 | 53 | 0.0 | 0.0 | 0.00 | 0.00 | 0.00 | 95 | 1013.4 | |
| 20260503110156 | 53 | 0.0 | 0.0 | 0.00 | 0.00 | 0.00 | 95 | 1013.4 | |
| 20260503100118 | 53 | 0.0 | 0.0 | 0.00 | 0.00 | 0.00 | 94 | 1013.5 | |
| 20260503090117 | 55 | 0.0 | 0.0 | 0.00 | 0.00 | 0.00 | 90 | 1013.5 | |
| 20260503081617 | 56 | 0.0 | 0.0 | 0.00 | 0.00 | 0.00 | 84 | 1013.7 | |
| 20260503081118 | 56 | 0.0 | 0.0 | 0.00 | 0.00 | 0.00 | 82 | 1013.7 | |
| 20260503080617 | 56 | 0.0 | 0.0 | 0.00 | 0.00 | 0.00 | 81 | 1013.6 | |
| 20260503080117 | 57 | 0.0 | 0.0 | 0.00 | 0.00 | 0.00 | 79 | 1013.6 | |
| 20260503072617 | 57 | 0.0 | 0.0 | 0.00 | 0.00 | 0.00 | 74 | 1013.5 | |
| 20260503072117 | 58 | 0.0 | 0.0 | 0.00 | 0.00 | 0.00 | 74 | 1013.4 | |
| 20260503071617 | 58 | 0.0 | 0.0 | 0.00 | 0.00 | 0.00 | 74 | 1013.4 | |
| 20260503071117 | 58 | 0.0 | 0.0 | 0.00 | 0.00 | 0.00 | 73 | 1013.4 | |
| 20260503070617 | 58 | 0.0 | 0.0 | 0.00 | 0.00 | 0.00 | 73 | 1013.5 | |
| 20260503070117 | 58 | 0.0 | 0.0 | 0.00 | 0.00 | 0.00 | 71 | 1013.4 | |
| 20260503060117 | 60 | 0.0 | 0.0 | 0.00 | 0.00 | 0.00 | 69 | 1013.1 | |
| 20260503055117 | 62 | 0.0 | 0.0 | 0.00 | 0.00 | 0.00 | 66 | 1013.0 | |
| 20260503054617 | 62 | 0.0 | 0.0 | 0.00 | 0.00 | 0.00 | 65 | 1013.1 | |
| 20260503054118 | 62 | 0.0 | 0.0 | 0.00 | 0.00 | 0.00 | 66 | 1013.0 | |
| 20260503053617 | 63 | 0.0 | 0.0 | 0.00 | 0.00 | 0.00 | 65 | 1012.9 | |
| 20260503053117 | 63 | 0.0 | 0.0 | 0.00 | 0.00 | 0.00 | 62 | 1012.9 | |
| 20260503052618 | 63 | 0.0 | 0.0 | 0.00 | 0.00 | 0.00 | 63 | 1013.0 | |
| 20260503052117 | 64 | 0.0 | 0.0 | 0.00 | 0.00 | 0.00 | 62 | 1012.9 | |
| 20260503051617 | 63 | 0.0 | 0.0 | 0.00 | 0.00 | 0.00 | 62 | 1012.9 | |
| 20260503051117 | 63 | 0.0 | 0.0 | 0.00 | 0.00 | 0.00 | 64 | 1012.8 | |
| 20260503050617 | 63 | 0.0 | 0.0 | 0.00 | 0.00 | 0.00 | 66 | 1012.9 | |
| 20260503050117 | 63 | 0.0 | 0.0 | 0.00 | 0.00 | 0.00 | 67 | 1012.7 | |
| 20260503045616 | 63 | 0.0 | 0.0 | 0.00 | 0.00 | 0.00 | 69 | 1012.7 | |
| 20260503045138 | 63 | 87 | 0.0 | 0.9 | 0.00 | 0.00 | 0.00 | 70 | 1012.6 |
| 20260503044617 | 64 | 0.0 | 0.0 | 0.00 | 0.00 | 0.00 | 70 | 1012.5 | |
| 20260503044117 | 64 | 0.0 | 0.0 | 0.00 | 0.00 | 0.00 | 68 | 1012.6 | |
| 20260503043617 | 63 | 0.0 | 0.0 | 0.00 | 0.00 | 0.00 | 68 | 1012.6 | |
| 20260503043117 | 64 | 0.0 | 0.0 | 0.00 | 0.00 | 0.00 | 67 | 1012.6 | |
| 20260503042617 | 64 | 0.0 | 0.0 | 0.00 | 0.00 | 0.00 | 67 | 1012.5 | |
| 20260503042117 | 65 | 0.0 | 0.0 | 0.00 | 0.00 | 0.00 | 66 | 1012.7 | |
| 20260503041617 | 65 | 0.0 | 0.0 | 0.00 | 0.00 | 0.00 | 66 | 1012.4 | |
| 20260503041117 | 65 | 0.0 | 0.0 | 0.00 | 0.00 | 0.00 | 66 | 1012.4 | |
| 20260503040657 | 66 | 0.0 | 0.0 | 0.00 | 0.00 | 0.00 | 65 | 1012.3 | |
| 20260503040117 | 66 | 0.0 | 0.0 | 0.00 | 0.00 | 0.00 | 63 | 1012.1 | |
| 20260503035617 | 66 | 0.0 | 0.0 | 0.00 | 0.00 | 0.00 | 63 | 1012.2 | |
| 20260503035117 | 66 | 102 | 0.0 | 0.9 | 0.00 | 0.00 | 0.00 | 63 | 1012.0 |
| 20260503034617 | 66 | 0.0 | 0.0 | 0.00 | 0.00 | 0.00 | 64 | 1011.9 | |
| 20260503034117 | 67 | 0.0 | 0.0 | 0.00 | 0.00 | 0.00 | 64 | 1011.9 | |
| 20260503033637 | 67 | 84 | 0.9 | 2.6 | 0.00 | 0.00 | 0.00 | 61 | 1011.9 |
| 20260503033117 | 67 | 0.0 | 0.0 | 0.00 | 0.00 | 0.00 | 63 | 1011.8 | |
| 20260503032616 | 68 | 0.0 | 0.0 | 0.00 | 0.00 | 0.00 | 62 | 1011.7 | |
| 20260503032117 | 68 | 0.0 | 0.0 | 0.00 | 0.00 | 0.00 | 61 | 1011.6 | |
| 20260503031638 | 68 | 0.0 | 0.0 | 0.00 | 0.00 | 0.00 | 61 | 1011.8 | |
| 20260503031137 | 69 | 0.0 | 0.0 | 0.00 | 0.00 | 0.00 | 61 | 1011.6 | |
| 20260503030617 | 69 | 0.0 | 0.0 | 0.00 | 0.00 | 0.00 | 59 | 1011.5 | |
| 20260503030117 | 69 | 74 | 0.9 | 1.7 | 0.00 | 0.00 | 0.00 | 58 | 1011.6 |
| 20260503025617 | 70 | 0.0 | 0.0 | 0.00 | 0.00 | 0.00 | 58 | 1011.4 | |
| 20260503025117 | 70 | 0.0 | 0.0 | 0.00 | 0.00 | 0.00 | 58 | 1011.3 | |
| 20260503024617 | 71 | 80 | 0.9 | 1.7 | 0.00 | 0.00 | 0.00 | 57 | 1011.3 |
| 20260503024137 | 71 | 87 | 0.9 | 2.6 | 0.00 | 0.00 | 0.00 | 56 | 1011.3 |
| 20260503023618 | 71 | 0.0 | 0.0 | 0.00 | 0.00 | 0.00 | 57 | 1011.2 | |
| 20260503023118 | 71 | 80 | 0.9 | 1.7 | 0.00 | 0.00 | 0.00 | 55 | 1011.1 |
| 20260503022618 | 72 | 2 | 0.9 | 1.7 | 0.00 | 0.00 | 0.00 | 55 | 1011.2 |
| 20260503022117 | 72 | 0.0 | 0.0 | 0.00 | 0.00 | 0.00 | 54 | 1011.0 | |
| 20260503021617 | 72 | 79 | 0.0 | 0.9 | 0.00 | 0.00 | 0.00 | 54 | 1011.1 |
| 20260503021117 | 73 | 75 | 0.9 | 1.7 | 0.00 | 0.00 | 0.00 | 53 | 1011.2 |
| 20260503020617 | 73 | 57 | 1.7 | 3.5 | 0.00 | 0.00 | 0.00 | 51 | 1011.1 |
| 20260503020117 | 73 | 2 | 2.6 | 6.1 | 0.00 | 0.00 | 0.00 | 51 | 1011.1 |
| 20260503015637 | 73 | 63 | 1.7 | 2.6 | 0.00 | 0.00 | 0.00 | 51 | 1011.1 |
| 20260503015118 | 73 | 82 | 0.9 | 3.5 | 0.00 | 0.00 | 0.00 | 53 | 1011.1 |
| 20260503014618 | 73 | 52 | 1.7 | 2.6 | 0.00 | 0.00 | 0.00 | 51 | 1011.2 |
| 20260503014118 | 74 | 72 | 1.7 | 1.7 | 0.00 | 0.00 | 0.00 | 51 | 1011.2 |
| 20260503013617 | 74 | 0.0 | 0.0 | 0.00 | 0.00 | 0.00 | 52 | 1011.2 | |
| 20260503013137 | 74 | 89 | 0.0 | 0.9 | 0.00 | 0.00 | 0.00 | 50 | 1011.1 |
| 20260503012637 | 74 | 84 | 0.0 | 0.9 | 0.00 | 0.00 | 0.00 | 51 | 1011.3 |
| 20260503012117 | 75 | 53 | 1.7 | 6.1 | 0.00 | 0.00 | 0.00 | 50 | 1011.2 |
| 20260503011617 | 75 | 0.0 | 0.0 | 0.00 | 0.00 | 0.00 | 49 | 1011.2 | |
| 20260503011117 | 75 | 87 | 0.0 | 1.7 | 0.00 | 0.00 | 0.00 | 50 | 1011.1 |
| 20260503010617 | 75 | 66 | 0.9 | 1.7 | 0.00 | 0.00 | 0.00 | 48 | 1011.1 |
| 20260503010117 | 75 | 333 | 3.5 | 7.0 | 0.00 | 0.00 | 0.00 | 48 | 1011.2 |
| 20260503005618 | 75 | 79 | 0.9 | 1.7 | 0.00 | 0.00 | 0.00 | 48 | 1011.3 |
| 20260503005118 | 76 | 55 | 1.7 | 3.5 | 0.00 | 0.00 | 0.00 | 47 | 1011.3 |
| 20260503004617 | 76 | 85 | 0.9 | 0.9 | 0.00 | 0.00 | 0.00 | 48 | 1011.3 |
| 20260503004117 | 75 | 93 | 0.9 | 0.9 | 0.00 | 0.00 | 0.00 | 48 | 1011.4 |
| 20260503003617 | 75 | 326 | 0.0 | 2.6 | 0.00 | 0.00 | 0.00 | 47 | 1011.5 |
| 20260503003117 | 75 | 85 | 0.9 | 1.7 | 0.00 | 0.00 | 0.00 | 48 | 1011.4 |